Regional Weather Roundup
Issued by NWS Upton, NY

Current Version | Previous Version | Graphics & Text | Print | Product List | Glossary On
Versions: 1 2 3 4 5 6 7 8 9 10 11 12 13 14 15 16 17 18 19 20 21 22 23 24 25 26 27 28 29 30 31 32 33 34 35 36 37 38 39 40 41 42 43 44 45 46 47 48 49 50
000
ASUS41 KOKX 210205
RWROKX

REGIONAL WEATHER ROUNDUP
NATIONAL WEATHER SERVICE NEW YORK NY
900 PM EST SAT DEC 20 2014

NOTE: "FAIR" INDICATES FEW OR NO CLOUDS BELOW 12,000 FEET WITH NO
SIGNIFICANT WEATHER AND/OR OBSTRUCTIONS TO VISIBILITY.

NYZ071-072-176-178-NJZ106-104-210300-
NEW YORK CITY METRO AREA


CITY           SKY/WX    TMP DP  RH WIND       PRES   REMARKS
CENTRAL PARK   CLOUDY    32  20  61 VRB5      30.31R WCI  27
LAGUARDIA APRT CLOUDY    33  22  63 N7        30.29R WCI  27
KENNEDY INTL   CLOUDY    34  21  59 N6        30.30R WCI  29
NEWARK/LIBERTY CLOUDY    33  21  61 N7        30.30R WCI  27
BRNX BOT. GARD   N/A    N/A N/A N/A NE2       30.29F
TETERBORO      CLOUDY    32  20  61 N3        30.29R
$$

NYZ177-179-078>081-210300-
LONG ISLAND NEW YORK

CITY           SKY/WX    TMP DP  RH WIND       PRES   REMARKS
FARMINGDALE    CLOUDY    33  22  63 NW3       30.29R
ISLIP          CLOUDY    33  23  66 CALM      30.27R
SHIRLEY        CLOUDY    33  25  72 CALM      30.29R
WESTHAMPTON    CLOUDY    33  27  78 CALM      30.29S
MONTAUK POINT    N/A     37  30  75 NE3       30.27S
$$

NYZ052-065-067-210300-
HUDSON VALLEY

CITY           SKY/WX    TMP DP  RH WIND       PRES   REMARKS
WHITE PLAINS   CLOUDY    30  21  69 N6        30.26S WCI  24
NEWBURGH       NOT AVBL
MONTGOMERY     CLOUDY    29  22  75 N3        30.28R
POUGHKEEPSIE   CLOUDY    30  20  66 N5        30.30R WCI  25
ALBANY         CLOUDY    28  19  69 N5        30.31S WCI  23
$$

NJZ001-105-106-008-010-013-015-019>022-104-210300-
NEW JERSEY

CITY           SKY/WX    TMP DP  RH WIND       PRES   REMARKS
NEWARK/LIBERTY CLOUDY    33  21  61 N7        30.30R WCI  27
TETERBORO      CLOUDY    32  20  61 N3        30.29R
CALDWELL       CLOUDY    31  21  66 VRB3      30.30R
MORRISTOWN     CLOUDY    32  23  69 N6        30.30R WCI  26
SOMERVILLE     CLOUDY    32  20  61 N3        30.28S
SUSSEX         CLOUDY    30  22  72 CALM      30.28R
ANDOVER          N/A     29  20  69 CALM      30.28R
TRENTON        CLOUDY    31  21  66 CALM      30.29R
MILLVILLE      CLOUDY    26  22  84 CALM      30.29F
ATLANTIC CITY  CLOUDY    26  21  81 N5        30.30S WCI  20
WRIGHTSTOWN    CLOUDY    28  23  81 CALM      30.27R
TOMS RIVER     CLEAR     27  21  80 CALM      30.31R
BELMAR         CLOUDY    30  18  59 W5        30.29R WCI  25
$$

PAZ047>061-062-071-210300-
EASTERN PENNSYLVANIA

CITY           SKY/WX    TMP DP  RH WIND       PRES   REMARKS
PHILADELPHIA   CLOUDY    35  21  56 NW6       30.31S WCI  30
ALLENTOWN      CLOUDY    31  22  69 NE5       30.28S WCI  26
SCRANTON       CLOUDY    30  20  66 N3        30.24F
$$

CTZ002-004>006-009-010-012-RIZ004-006-007-MAZ004-011-015-210300-
SOUTHERN NEW ENGLAND
 IN CT

CITY           SKY/WX    TMP DP  RH WIND       PRES   REMARKS
BRADLEY INTL   CLOUDY    32  22  66 N9        30.27F WCI  24
HARTFORD       CLOUDY    31  21  66 VRB5      30.29S WCI  26
DANBURY        CLOUDY    29  22  75 CALM      30.28R
WTRBRY/OXFORD  CLOUDY    28  19  69 CALM      30.25S
BRIDGEPORT     CLOUDY    33  27  78 N7        30.29R WCI  27
MERIDEN        CLOUDY    31  23  72 N3        30.28S
NEW HAVEN      CLOUDY    35  24  64 CALM      30.28R
CHESTER        CLOUDY    32  25  74 N5        30.26S WCI  27
GROTON         CLOUDY    33  27  78 N9        30.26F WCI  25
WILLIMANTIC    CLOUDY    33  26  75 N8        30.27F WCI  26

 IN RI

CITY           SKY/WX    TMP DP  RH WIND       PRES   REMARKS
PROVIDENCE     LGT SNOW  31  29  92 N9        30.29S FOG     WCI  23
BLOCK ISLAND   CLOUDY    36  28  75 NE10      30.24S WCI  28
WESTERLY       CLOUDY    34  28  79 N8        30.27S WCI  27

 IN MA

CITY           SKY/WX    TMP DP  RH WIND       PRES   REMARKS
BOSTON         CLOUDY    35  29  78 N20       30.30F WCI  24
WORCESTER      CLOUDY    28  24  85 NE8       30.25S WCI  20
WESTFIELD      CLOUDY    33  25  72 N5        30.28S WCI  29
PROVINCETOWN   CLOUDY    39  32  75 NE12G17   30.28F WCI  32
NANTUCKET      CLOUDY    41  36  82 NE8       30.23F
$$

ANZ330-335-338-340-345-350-353-355-210300-
COASTAL MARINE OBSERVATIONS


STATION/POSITION TIME  SKY/WX   TEMP    WIND        PRES    VSBY  WAVE
                                AIR SEA DIR/SP/G                  HT/PER
                 (UTC)          (F)     (DEG/KT/KT) (MB)    (MI)  (FT/S)
NY HARB ENTRANCE 0200            35 46  330/  4/  6 1026.0          1/10
4S FIRE IS       0200               45                N/A           1/11
20S FIRE ISLAND  0100            36 49              1025.7          1/10
23SW MTP         0200                                 N/A           2/ 4
HUDSON CANYON    0200            39 54  340/ 12/ 16 1024.3          2/ 3
EXECUTION ROCKS  0200            33 41  330/  4/  6   N/A
WESTERN LI SOUND 0200            33     350/  6/ 10   N/A           0
CENTRAL LI SOUND 0100            33 44  360/  6/  8   N/A           0
EASTERN LI SOUND NOT AVBL
ROBBINS REEF     0200            33     130/  3/  3 1024.7
$$


>>>>>>>>>>>>>>>>>>>>>>>>>>>> KEY <<<<<<<<<<<<<<<<<<<<<<<<<<<
>                                                          <
>     SKY/WX - SKY CONDITION/PRESENT WEATHER               <
>     TMP    - TEMPERATURE IN FAHRENHEIT                   <
>     DP     - DEWPOINT IN FAHRENHEIT                      <
>     RH     - RELATIVE HUMIDITY IN PERCENT                <
>     WIND   - DIRECTION AND SPEED IN MPH                  <
>     PRES   - MEAN SEA LEVEL PRESSURE IN INCHES OF HG     <
>     WCI    - WIND CHILL INDEX                            <
>     VSB    - VISIBILITY IN MILES                         <
>     HX     - HEAT INDEX                                  <
>     TC     - TEMPERATURE IN CELSIUS                      <
>     VRB    - VARIABLE WIND DIRECTION                     <
>                                                          <
>>>>>>>>>>>>>>>>>>>>>>>>>>>> KEY <<<<<<<<<<<<<<<<<<<<<<<<<<<




USA.gov is the U.S. government's official web portal to all federal, state and local government web resources and services.